^^
Station Historical Data
Daily Summary for Nil La, TWC- Units:  English    Metric   Both
« Previous Day
Next Day »
Daily Weekly Monthly Yearly Custom
  High: Low: Average:
Temperature: TemperatureF °F 63.7 °F 69.6 °F
Dew Point: DewpointF °F 16.7 °F 18.9 °F
Humidity: Humidity% 11% 14%
Wind Speed: WindSpeedMPHmph 0.0mph 1mph
Wind Gust: WindSpeedGustMPHmph - -
Wind- - ESE
Pressure: PressureIn in 29.76 in -
Precipitation: 0.00 in    
Historical Graphs
 
 
Tabular Data for Nil La, TWC-
Time Temperature Dew Point Pressure Wind Wind Speed Wind Gust Humidity Rainfall Rate (Hourly) solar Conditions
TemperatureF °F DewpointF °F PressureIn in Calm     Humidity% HourlyPrecipIn in SolarRadiationWatts/m^2 W/m2 Conditions
00:04 76.3 °F 18.0 °F 29.78 in Calm     11% 0.00 in 0.00 W/m2
00:09 75.9 °F 17.6 °F 29.78 in Calm   6.0 mph 11% 0.00 in 0.00 W/m2
00:14 75.9 °F 17.6 °F 29.78 in SSE 0.9 mph 3.0 mph 11% 0.00 in 0.00 W/m2
00:19 75.7 °F 17.4 °F 29.78 in Calm   4.0 mph 11% 0.00 in 0.00 W/m2
00:24 75.6 °F 17.4 °F 29.78 in Calm   2.0 mph 11% 0.00 in 0.00 W/m2
00:29 75.4 °F 19.2 °F 29.78 in Calm   1.0 mph 12% 0.00 in 0.00 W/m2
00:34 75.0 °F 19.0 °F 29.78 in NNE 0.9 mph 1.0 mph 12% 0.00 in 0.00 W/m2
00:38 74.8 °F 18.9 °F 29.78 in Calm   1.0 mph 12% 0.00 in 0.00 W/m2
00:44 74.5 °F 18.5 °F 29.78 in Calm   2.0 mph 12% 0.00 in 0.00 W/m2
00:49 74.3 °F 20.3 °F 29.78 in Calm   5.0 mph 13% 0.00 in 0.00 W/m2
00:54 74.1 °F 18.3 °F 29.78 in South 0.9 mph 5.0 mph 12% 0.00 in 0.00 W/m2
00:59 74.3 °F 18.3 °F 29.77 in SE 0.9 mph 5.0 mph 12% 0.00 in 0.00 W/m2
01:04 74.5 °F 18.5 °F 29.77 in SE 4.0 mph 4.0 mph 12% 0.00 in 0.00 W/m2
01:09 74.5 °F 18.5 °F 29.78 in SE 0.9 mph 7.0 mph 12% 0.00 in 0.00 W/m2
01:14 74.7 °F 18.7 °F 29.77 in Calm   6.0 mph 12% 0.00 in 0.00 W/m2
01:19 74.7 °F 18.7 °F 29.77 in SE 0.9 mph 2.0 mph 12% 0.00 in 0.00 W/m2
01:24 74.5 °F 18.5 °F 29.77 in Calm   1.0 mph 12% 0.00 in 0.00 W/m2
01:29 74.3 °F 18.3 °F 29.78 in SE 2.0 mph 3.0 mph 12% 0.00 in 0.00 W/m2
01:34 74.1 °F 18.3 °F 29.77 in SE 2.0 mph 6.0 mph 12% 0.00 in 0.00 W/m2
01:39 74.5 °F 18.5 °F 29.77 in SE 2.9 mph 5.0 mph 12% 0.00 in 0.00 W/m2
01:44 74.7 °F 16.7 °F 29.77 in SE 6.9 mph 10.0 mph 11% 0.00 in 0.00 W/m2
01:49 75.0 °F 16.9 °F 29.77 in SE 4.0 mph 7.0 mph 11% 0.00 in 0.00 W/m2
01:54 75.2 °F 17.1 °F 29.77 in SSE 6.9 mph 7.0 mph 11% 0.00 in 0.00 W/m2
01:59 75.0 °F 16.9 °F 29.76 in SSE 2.0 mph 6.0 mph 11% 0.00 in 0.00 W/m2
02:04 75.0 °F 16.9 °F 29.77 in SE 2.0 mph 8.0 mph 11% 0.00 in 0.00 W/m2
02:09 74.8 °F 16.9 °F 29.76 in Calm   6.0 mph 11% 0.00 in 0.00 W/m2
02:14 74.8 °F 16.9 °F 29.76 in SSE 6.0 mph 6.0 mph 11% 0.00 in 0.00 W/m2
02:19 75.0 °F 16.9 °F 29.76 in SSE 2.9 mph 4.0 mph 11% 0.00 in 0.00 W/m2
02:24 74.8 °F 16.9 °F 29.76 in SSE 2.9 mph 5.0 mph 11% 0.00 in 0.00 W/m2
02:29 74.8 °F 18.9 °F 29.76 in SE 4.0 mph 7.0 mph 12% 0.00 in 0.00 W/m2
02:34 74.8 °F 16.9 °F 29.76 in SE 6.0 mph 9.0 mph 11% 0.00 in 0.00 W/m2
02:39 75.0 °F 16.9 °F 29.76 in Calm   6.0 mph 11% 0.00 in 0.00 W/m2
02:44 75.0 °F 19.0 °F 29.76 in SSE 0.9 mph 4.0 mph 12% 0.00 in 0.00 W/m2
02:49 75.0 °F 19.0 °F 29.76 in NE 0.9 mph 2.0 mph 12% 0.00 in 0.00 W/m2
02:54 74.8 °F 18.9 °F 29.76 in Calm     12% 0.00 in 0.00 W/m2
02:59 74.7 °F 18.7 °F 29.76 in Calm     12% 0.00 in 0.00 W/m2
03:04 74.1 °F 18.3 °F 29.76 in Calm   3.0 mph 12% 0.00 in 0.00 W/m2
03:09 73.8 °F 19.8 °F 29.76 in Calm     13% 0.00 in 0.00 W/m2
03:14 73.0 °F 19.2 °F 29.76 in Calm   1.0 mph 13% 0.00 in 0.00 W/m2
03:19 72.7 °F 19.0 °F 29.76 in Calm   1.0 mph 13% 0.00 in 0.00 W/m2
03:24 72.0 °F 20.1 °F 29.76 in Calm     14% 0.00 in 0.00 W/m2
03:29 71.4 °F 18.0 °F 29.76 in Calm     13% 0.00 in 0.00 W/m2
03:34 71.1 °F 19.4 °F 29.76 in NE 2.0 mph 2.0 mph 14% 0.00 in 0.00 W/m2
03:39 70.5 °F 19.0 °F 29.76 in Calm   1.0 mph 14% 0.00 in 0.00 W/m2
03:44 70.2 °F 18.7 °F 29.76 in Calm   3.0 mph 14% 0.00 in 0.00 W/m2
03:49 70.0 °F 18.5 °F 29.77 in Calm   1.0 mph 14% 0.00 in 0.00 W/m2
03:54 69.6 °F 19.9 °F 29.77 in ENE 0.9 mph 4.0 mph 15% 0.00 in 0.00 W/m2
03:59 69.3 °F 19.6 °F 29.77 in Calm   2.0 mph 15% 0.00 in 0.00 W/m2
04:04 69.1 °F 19.4 °F 29.77 in Calm   3.0 mph 15% 0.00 in 0.00 W/m2
04:09 68.7 °F 19.2 °F 29.77 in Calm   4.0 mph 15% 0.00 in 0.00 W/m2
04:14 68.7 °F 19.2 °F 29.78 in ENE 0.9 mph 4.0 mph 15% 0.00 in 0.00 W/m2
04:19 68.4 °F 18.9 °F 29.78 in Calm   4.0 mph 15% 0.00 in 0.00 W/m2
04:24 68.2 °F 18.7 °F 29.78 in ENE 0.9 mph 3.0 mph 15% 0.00 in 0.00 W/m2
04:29 68.0 °F 18.7 °F 29.78 in NE 2.9 mph 5.0 mph 15% 0.00 in 0.00 W/m2
04:34 67.8 °F 19.9 °F 29.78 in NE 2.9 mph 4.0 mph 16% 0.00 in 0.00 W/m2
04:39 67.6 °F 19.8 °F 29.79 in NE 2.0 mph 3.0 mph 16% 0.00 in 0.00 W/m2
04:44 67.5 °F 19.8 °F 29.79 in NE 2.9 mph 4.0 mph 16% 0.00 in 0.00 W/m2
04:49 67.3 °F 19.6 °F 29.79 in Calm   3.0 mph 16% 0.00 in 0.00 W/m2
04:54 66.9 °F 19.2 °F 29.79 in ENE 0.9 mph 4.0 mph 16% 0.00 in 0.00 W/m2
04:59 66.7 °F 19.0 °F 29.79 in ENE 2.9 mph 4.0 mph 16% 0.00 in 0.00 W/m2
05:04 66.6 °F 19.0 °F 29.79 in NE 0.9 mph 4.0 mph 16% 0.00 in 0.00 W/m2
05:09 66.4 °F 18.9 °F 29.79 in ENE 0.9 mph 5.0 mph 16% 0.00 in 0.00 W/m2
05:14 66.2 °F 18.7 °F 29.79 in East 2.0 mph 3.0 mph 16% 0.00 in 0.00 W/m2
05:19 66.0 °F 18.5 °F 29.79 in Calm   2.0 mph 16% 0.00 in 0.00 W/m2
05:24 65.8 °F 18.3 °F 29.79 in ENE 0.9 mph 3.0 mph 16% 0.00 in 0.00 W/m2
05:29 65.7 °F 18.3 °F 29.80 in Calm   2.0 mph 16% 0.00 in 0.00 W/m2
05:34 65.5 °F 18.1 °F 29.80 in Calm   2.0 mph 16% 0.00 in 0.00 W/m2
05:38 65.3 °F 19.4 °F 29.80 in ENE 0.9 mph 3.0 mph 17% 0.00 in 0.00 W/m2
05:44 65.1 °F 19.2 °F 29.80 in Calm   1.0 mph 17% 0.00 in 0.00 W/m2
05:49 64.9 °F 19.0 °F 29.80 in Calm   1.0 mph 17% 0.00 in 0.00 W/m2
05:54 64.8 °F 18.9 °F 29.80 in Calm     17% 0.00 in 0.00 W/m2
05:59 64.4 °F 18.7 °F 29.80 in Calm   1.0 mph 17% 0.00 in 0.00 W/m2
06:04 64.2 °F 19.8 °F 29.80 in Calm   1.0 mph 18% 0.00 in 5.00 W/m2
06:08 64.0 °F 19.6 °F 29.80 in Calm   1.0 mph 18% 0.00 in 7.00 W/m2
06:14 63.9 °F 19.6 °F 29.80 in Calm     18% 0.00 in 9.00 W/m2
06:19 63.7 °F 19.4 °F 29.80 in ENE 2.0 mph 2.0 mph 18% 0.00 in 12.00 W/m2
06:24 63.7 °F 20.7 °F 29.81 in Calm   2.0 mph 19% 0.00 in 16.00 W/m2
06:29 63.7 °F 20.7 °F 29.81 in Calm   1.0 mph 19% 0.00 in 18.00 W/m2
06:34 63.7 °F 20.7 °F 29.81 in Calm     19% 0.00 in 21.00 W/m2
06:39 63.7 °F 20.7 °F 29.81 in Calm     19% 0.00 in 23.00 W/m2
06:44 63.7 °F 21.9 °F 29.81 in Calm     20% 0.00 in 25.00 W/m2
06:48 63.7 °F 24.1 °F 29.81 in Calm     22% 0.00 in 26.00 W/m2
06:54 63.7 °F 27.1 °F 29.82 in Calm     25% 0.00 in 28.00 W/m2
06:59 63.9 °F 24.3 °F 29.82 in Calm     22% 0.00 in 32.00 W/m2
07:04 63.9 °F 28.2 °F 29.82 in Calm     26% 0.00 in 33.00 W/m2
Olympia, Windhoek, Namibia
Compliments of Weather Underground - 2.25 mb